FW6429 Weather Reports


time (UTC)temp
C
wind
direction
speed
KPH
gust
KPH
rain 1hr
cm
rain 24hr
cm
rain mn
cm
humidity
%
barometer
mb
20260508043103 9 310 0.0 3.2 0.00 0.00 0.00 87 1001.9
20260508041555 9 223 0.0 0.0 0.00 0.00 0.00 87 1001.9
20260508040055 9 223 0.0 0.0 0.00 0.00 0.00 87 1001.9
20260508034546 9 223 0.0 0.0 0.00 0.00 0.00 87 1002.2
20260508033042 9 223 0.0 0.0 0.00 0.00 0.00 87 1002.3
20260508031538 9 223 0.0 0.0 0.00 0.00 0.00 87 1002.3
20260508030035 9 223 0.0 0.0 0.00 0.00 0.00 87 1002.4
20260508024545 9 223 3.2 4.8 0.00 0.00 0.00 87 1002.3
20260508023035 9 223 0.0 3.2 0.00 0.00 0.00 87 1002.0
20260508021535 9 223 0.0 0.0 0.00 0.00 0.00 87 1002.1
20260508020033 9 223 0.0 1.6 0.00 0.00 0.00 87 1002.1
20260508014540 8 193 1.6 4.8 0.00 0.00 0.00 87 1002.3
20260508013032 8 191 1.6 6.4 0.00 0.00 0.00 87 1002.0
20260508011535 8 215 1.6 6.4 0.00 0.00 0.00 87 1002.2
20260508010035 8 210 3.2 11.3 0.00 0.00 0.00 87 1002.4
20260508004534 8 222 3.2 9.7 0.00 0.00 0.00 87 1002.4
20260508003030 8 230 0.0 4.8 0.00 0.00 0.00 87 1002.3
20260508001631 9 249 1.6 8.0 0.00 0.00 0.00 87 1002.6
20260508000028 9 202 3.2 12.9 0.00 0.00 0.00 87 1002.9
20260507234527 9 188 1.6 9.7 0.00 0.00 0.00 87 1002.5
20260507233038 9 200 1.6 9.7 0.00 0.00 0.00 87 1002.9
20260507231534 9 217 1.6 8.0 0.00 0.00 0.00 88 1003.2
20260507230025 9 173 3.2 8.0 0.00 0.00 0.00 88 1002.9
20260507224531 9 186 1.6 6.4 0.00 0.00 0.00 88 1003.2
20260507223026 9 252 3.2 8.0 0.00 0.00 0.00 88 1003.1
20260507221533 9 166 1.6 8.0 0.00 0.00 0.00 88 1003.3
20260507220022 9 210 1.6 8.0 0.00 0.00 0.00 88 1003.4
20260507214520 9 215 3.2 12.9 0.00 0.00 0.00 88 1002.9
20260507213019 9 254 6.4 12.9 0.00 0.00 0.00 89 1002.5
20260507211522 9 196 6.4 16.1 0.00 0.00 0.00 89 1002.6
20260507210012 10 183 6.4 16.1 0.00 0.00 0.00 89 1003.5
20260507204509 10 203 3.2 16.1 0.00 0.00 0.00 89 1004.1
20260507203007 10 199 6.4 32.2 0.00 0.00 0.00 90 1004.1
20260507201505 10 202 6.4 16.1 0.00 0.00 0.00 91 1004.8
20260507200002 10 233 6.4 14.5 0.00 0.00 0.00 92 1005.1
20260507194502 10 239 8.0 16.1 0.00 0.00 0.00 92 1004.9
20260507193003 11 207 3.2 17.7 0.00 0.00 0.00 93 1005.0
20260507191604 11 200 8.0 17.7 0.00 0.00 0.00 93 1005.1
20260507190105 11 198 8.0 22.5 0.00 0.00 0.00 94 1005.4
20260507184600 11 205 9.7 22.5 0.00 0.00 0.00 93 1005.9
20260507183054 11 209 6.4 17.7 0.00 0.00 0.00 93 1005.7
20260507181554 11 197 9.7 30.6 0.00 0.00 0.00 92 1005.4
20260507180052 12 159 12.9 35.4 0.00 0.00 0.00 91 1005.4
20260507174551 12 172 9.7 30.6 0.00 0.00 0.00 91 1005.5
20260507173050 12 202 9.7 22.5 0.00 0.00 0.00 91 1006.0
20260507171547 12 204 9.7 30.6 0.00 0.00 0.00 91 1005.9
20260507170046 12 235 4.8 32.2 0.00 0.00 0.00 91 1006.5
20260507164556 12 196 11.3 27.4 0.00 0.00 0.00 91 1006.7
20260507163040 12 188 9.7 24.1 0.00 0.00 0.00 91 1007.2
20260507161540 12 202 6.4 20.9 0.00 0.00 0.00 90 1008.1
20260507160039 13 190 12.9 22.5 0.00 0.00 0.00 91 1008.1
20260507154540 13 302 8.0 30.6 0.00 0.00 0.00 91 1008.4
20260507153034 13 159 12.9 35.4 0.00 0.00 0.00 91 1008.6
20260507151533 13 164 11.3 25.7 0.00 0.00 0.00 90 1009.1
20260507150029 12 192 11.3 24.1 0.00 0.00 0.00 90 1009.1
20260507144531 12 148 9.7 33.8 0.00 0.00 0.00 90 1009.3
20260507143031 12 179 11.3 27.4 0.00 0.00 0.00 90 1010.0
20260507141523 12 179 8.0 24.1 0.00 0.00 0.00 88 1010.4
20260507140021 12 209 8.0 19.3 0.00 0.00 0.00 87 1010.6
20260507134524 12 196 6.4 17.7 0.00 0.00 0.00 87 1010.7
20260507133017 12 231 8.0 24.1 0.00 0.00 0.00 87 1011.0
20260507131517 11 109 3.2 24.1 0.00 0.00 0.00 87 1010.7
20260507130014 11 242 8.0 16.1 0.00 0.00 0.00 87 1011.0
20260507124517 11 184 8.0 25.7 0.00 0.00 0.00 87 1010.7
20260507123013 11 192 9.7 24.1 0.00 0.00 0.00 87 1010.9
20260507121508 11 194 6.4 19.3 0.00 0.00 0.00 87 1011.8
20260507120007 11 186 8.0 22.5 0.00 0.00 0.00 87 1012.1
20260507114506 11 177 6.4 17.7 0.00 0.00 0.00 87 1012.6
20260507113012 11 204 4.8 9.7 0.00 0.00 0.00 88 1012.7
20260507111504 11 167 6.4 16.1 0.00 0.00 0.00 88 1012.4
20260507110002 10 196 8.0 19.3 0.00 0.00 0.00 88 1012.8
20260507104600 10 206 8.0 24.1 0.00 0.00 0.00 88 1012.8
20260507103059 10 188 4.8 16.1 0.00 0.00 0.00 89 1013.5
20260507101608 10 175 3.2 16.1 0.00 0.00 0.00 89 1013.0
20260507094604 10 190 8.0 19.3 0.00 0.00 0.00 89 1013.2
20260507093053 10 141 6.4 22.5 0.00 0.00 0.00 90 1013.3
20260507091552 10 167 8.0 24.1 0.00 0.00 0.00 90 1013.1
20260507090050 11 162 9.7 20.9 0.00 0.00 0.00 90 1013.2
20260507084556 11 183 6.4 19.3 0.00 0.00 0.00 91 1013.5
20260507083049 11 187 8.0 22.5 0.00 0.00 0.00 92 1013.4
20260507081546 10 135 4.8 19.3 0.00 0.00 0.00 92 1013.5
20260507080048 10 177 4.8 14.5 0.00 0.00 0.00 92 1014.0
20260507074542 10 206 3.2 8.0 0.00 0.00 0.00 92 1014.4
20260507073037 10 212 1.6 9.7 0.00 0.00 0.00 92 1014.6
20260507071535 10 186 3.2 14.5 0.00 0.00 0.00 92 1014.8
20260507070034 10 181 6.4 14.5 0.00 0.00 0.00 92 1014.8
20260507064532 11 124 6.4 16.1 0.00 0.00 0.00 92 1014.8
20260507063028 11 173 6.4 17.7 0.00 0.00 0.00 92 1015.0
20260507061526 11 187 4.8 16.1 0.00 0.00 0.00 93 1015.2
20260507060024 11 183 3.2 12.9 0.00 0.00 0.00 93 1015.4
20260507054530 11 171 4.8 16.1 0.00 0.00 0.00 94 1015.5
20260507053019 11 184 4.8 14.5 0.00 0.00 0.00 94 1015.8
20260507051517 11 185 4.8 12.9 0.00 0.00 0.00 94 1016.1
20260507050014 11 200 4.8 8.0 0.00 0.00 0.00 95 1016.4
20260507044512 11 221 6.4 11.3 0.00 0.00 0.00 95 1016.7